Time,B instrument,Bx,By,Bz,sigma B,Ion instrument,Status,Tp_par,Tp_perp,carrot,r_sun,clat,clong,earth_he_angle,n_p,vp_x,vp_y,vp_z,vth_p_par,vth_p_perp
1980-02-27 00:00:18,1,-5.73636,-2.08182,5.61818,0.397513,1,1,65181.8,48175.2,1692,0.98399222,-0.53710878,197.49609,282.57813,7.11719,322.144,-36.9923,26.3345,32.8036,28.2013
1980-02-27 00:00:58,1,-5.76923,-2.34615,5.65385,0.305376,1,1,64483.5,52789.6,1692,0.98399222,-0.53710878,197.48828,282.57813,7.24405,322.52,-37.5156,28.7025,32.6274,29.5211
1980-02-27 00:01:39,1,-5.59231,-2.33846,5.73846,0.281585,1,1,67606.7,47413.8,1692,0.98399186,-0.53716964,197.48022,282.57788,7.15197,321.202,-37.042,28.6043,33.4082,27.9776
1980-02-27 00:02:19,1,-5.68889,-2.26667,5.8,0.307117,1,1,57302.9,51576.1,1692,0.9839915,-0.53723049,197.47607,282.57764,7.17623,320.208,-38.1648,26.4934,30.7572,29.1798
1980-02-27 00:03:00,-1,nan,nan,nan,nan,1,3,nan,nan,1692,0.98399115,-0.53729135,197.46802,282.57739,nan,321.005,-34.6236,29.3607,nan,nan
1980-02-27 00:03:40,-1,nan,nan,nan,nan,1,3,nan,nan,1692,0.98399115,-0.53729135,197.46411,282.57739,nan,319.904,-37.697,25.7774,nan,nan
1980-02-27 00:04:21,-1,nan,nan,nan,nan,1,3,nan,nan,1692,0.98399079,-0.5373522,197.45605,282.57715,nan,322.16,-41.2572,25.9633,nan,nan
1980-02-27 00:05:01,-1,nan,nan,nan,nan,1,3,nan,nan,1692,0.98399043,-0.53741306,197.4519,282.5769,nan,316.463,-34.8712,24.0686,nan,nan
1980-02-27 00:05:42,-1,nan,nan,nan,nan,1,3,nan,nan,1692,0.98399043,-0.53741306,197.44409,282.5769,nan,316.568,-37.5383,24.2455,nan,nan
1980-02-27 00:06:22,-1,nan,nan,nan,nan,1,3,nan,nan,1692,0.98399007,-0.53747392,197.43604,282.57666,nan,321.12,-39.8908,23.7527,nan,nan
1980-02-27 00:07:03,-1,nan,nan,nan,nan,1,3,nan,nan,1692,0.98398972,-0.53753477,197.43188,282.57642,nan,315.552,-31.2446,23.71,nan,nan
1980-02-27 00:07:43,-1,nan,nan,nan,nan,1,3,nan,nan,1692,0.98398972,-0.53753483,197.42407,282.57642,nan,313.363,-31.3556,22.1664,nan,nan
1980-02-27 00:08:24,-1,nan,nan,nan,nan,1,3,nan,nan,1692,0.98398936,-0.53759563,197.42017,282.57642,nan,313.786,-28.6233,23.3035,nan,nan
1980-02-27 00:09:04,-1,nan,nan,nan,nan,1,3,nan,nan,1692,0.983989,-0.53765649,197.41211,282.57617,nan,311.685,-28.5764,28.7345,nan,nan
1980-02-27 00:09:45,-1,nan,nan,nan,nan,1,3,nan,nan,1692,0.983989,-0.53765655,197.4043,282.57617,nan,308.227,-16.7548,24.0035,nan,nan
1980-02-27 00:10:25,-1,nan,nan,nan,nan,1,3,nan,nan,1692,0.98398864,-0.53771734,197.40015,282.57593,nan,309.843,-21.3287,24.1438,nan,nan
1980-02-27 00:11:06,-1,nan,nan,nan,nan,1,3,nan,nan,1692,0.98398829,-0.5377782,197.39209,282.57568,nan,311.077,-14.8987,25.987,nan,nan
1980-02-27 00:11:46,-1,nan,nan,nan,nan,1,3,nan,nan,1692,0.98398829,-0.53777826,197.38818,282.57568,nan,309.864,-20.233,23.3513,nan,nan
1980-02-27 00:12:27,-1,nan,nan,nan,nan,1,3,nan,nan,1692,0.98398793,-0.53783911,197.38013,282.57544,nan,311.042,-31.057,24.2795,nan,nan
1980-02-27 00:13:07,-1,nan,nan,nan,nan,1,3,nan,nan,1692,0.98398757,-0.53789991,197.37598,282.5752,nan,316.362,-42.6168,21.1992,nan,nan
1980-02-27 00:13:48,-1,nan,nan,nan,nan,1,3,nan,nan,1692,0.98398757,-0.53789997,197.36816,282.5752,nan,316.643,-42.1337,19.0621,nan,nan
1980-02-27 00:14:28,-1,nan,nan,nan,nan,1,3,nan,nan,1692,0.98398721,-0.53796083,197.36011,282.57495,nan,313.539,-27.7777,28.6305,nan,nan
1980-02-27 00:15:09,-1,nan,nan,nan,nan,1,3,nan,nan,1692,0.98398691,-0.53802162,197.3562,282.57495,nan,313.178,-15.2954,31.0984,nan,nan
1980-02-27 00:15:49,-1,nan,nan,nan,nan,1,3,nan,nan,1692,0.98398691,-0.53802168,197.34839,282.57495,nan,312.413,-11.2758,23.4591,nan,nan
1980-02-27 00:16:30,-1,nan,nan,nan,nan,1,3,nan,nan,1692,0.98398656,-0.53808254,197.34424,282.57471,nan,308.525,-10.6741,14.8462,nan,nan
1980-02-27 00:17:10,-1,nan,nan,nan,nan,1,3,nan,nan,1692,0.9839862,-0.5381434,197.33618,282.57446,nan,312.92,-34.3784,21.4672,nan,nan
1980-02-27 00:17:51,-1,nan,nan,nan,nan,1,3,nan,nan,1692,0.9839862,-0.5381434,197.32837,282.57446,nan,310.131,-39.2742,18.3921,nan,nan
1980-02-27 00:18:31,-1,nan,nan,nan,nan,1,3,nan,nan,1692,0.98398584,-0.53820425,197.32422,282.57422,nan,313.52,-36.8812,24.9753,nan,nan
1980-02-27 00:19:12,-1,nan,nan,nan,nan,1,3,nan,nan,1692,0.98398548,-0.53826511,197.31616,282.57397,nan,315.485,-26.8491,30.4891,nan,nan
1980-02-27 00:19:52,-1,nan,nan,nan,nan,1,3,nan,nan,1692,0.98398548,-0.53826511,197.31226,282.57397,nan,320.335,-3.93635,31.838,nan,nan
1980-02-27 00:20:33,-1,nan,nan,nan,nan,1,3,nan,nan,1692,0.98398513,-0.53832597,197.3042,282.57373,nan,316.025,-3.37104,33.294,nan,nan
1980-02-27 00:21:13,-1,nan,nan,nan,nan,1,4,nan,nan,1692,0.98398477,-0.53838682,197.30005,282.57349,nan,nan,nan,nan,nan,nan
1980-02-27 00:21:54,-1,nan,nan,nan,nan,1,3,nan,nan,1692,0.98398477,-0.53838682,197.29224,282.57349,nan,321.965,4.74933,29.7678,nan,nan
1980-02-27 00:22:34,-1,nan,nan,nan,nan,1,3,nan,nan,1692,0.98398441,-0.53844768,197.28418,282.57324,nan,315.233,-8.14468,31.9841,nan,nan
1980-02-27 00:23:15,-1,nan,nan,nan,nan,1,3,nan,nan,1692,0.98398405,-0.53850853,197.28027,282.57324,nan,309.323,-18.7602,33.2415,nan,nan
1980-02-27 00:23:55,-1,nan,nan,nan,nan,1,3,nan,nan,1692,0.98398405,-0.53850859,197.27246,282.57324,nan,309.914,-42.852,20.4457,nan,nan
1980-02-27 00:24:36,-1,nan,nan,nan,nan,1,3,nan,nan,1692,0.9839837,-0.53856939,197.26831,282.573,nan,309.46,-36.6086,26.1839,nan,nan
1980-02-27 00:25:16,-1,nan,nan,nan,nan,1,3,nan,nan,1692,0.98398334,-0.53863025,197.26025,282.57275,nan,312.58,-26.9548,28.585,nan,nan
1980-02-27 00:25:57,-1,nan,nan,nan,nan,1,3,nan,nan,1692,0.98398334,-0.53863031,197.25244,282.57275,nan,311.498,-36.581,25.8731,nan,nan
1980-02-27 00:26:37,-1,nan,nan,nan,nan,1,3,nan,nan,1692,0.98398298,-0.5386911,197.24829,282.57251,nan,322.78,-47.5188,19.7214,nan,nan
1980-02-27 00:27:18,-1,nan,nan,nan,nan,1,3,nan,nan,1692,0.98398262,-0.53875196,197.24023,282.57227,nan,314.269,-39.8947,19.6666,nan,nan
1980-02-27 00:27:58,-1,nan,nan,nan,nan,1,3,nan,nan,1692,0.98398262,-0.53875202,197.23633,282.57227,nan,322.98,-50.3237,18.1142,nan,nan
1980-02-27 00:28:39,-1,nan,nan,nan,nan,1,3,nan,nan,1692,0.98398226,-0.53881288,197.22827,282.57202,nan,322.046,-48.4217,21.9452,nan,nan
1980-02-27 00:29:19,-1,nan,nan,nan,nan,1,3,nan,nan,1692,0.98398191,-0.53887367,197.22412,282.57178,nan,319.791,-51.0978,18.5813,nan,nan
1980-02-27 00:30:00,-1,nan,nan,nan,nan,1,3,nan,nan,1692,0.98398161,-0.53893453,197.21631,282.57178,nan,319.585,-46.277,18.4035,nan,nan
1980-02-27 00:30:40,-1,nan,nan,nan,nan,1,3,nan,nan,1692,0.98398161,-0.53893459,197.2085,282.57178,nan,323.029,-43.1344,22.5206,nan,nan
1980-02-27 00:31:21,-1,nan,nan,nan,nan,1,3,nan,nan,1692,0.98398125,-0.53899539,197.20435,282.57153,nan,327.678,-46.4108,30.1543,nan,nan
1980-02-27 00:32:01,-1,nan,nan,nan,nan,1,3,nan,nan,1692,0.98398089,-0.53905624,197.19629,282.57129,nan,309.858,-38.0988,18.7386,nan,nan
1980-02-27 00:32:42,-1,nan,nan,nan,nan,1,3,nan,nan,1692,0.98398089,-0.5390563,197.19238,282.57129,nan,311.796,-35.6769,15.7674,nan,nan
1980-02-27 00:33:22,-1,nan,nan,nan,nan,1,3,nan,nan,1692,0.98398054,-0.53911716,197.18433,282.57104,nan,312.362,-39.1259,17.1368,nan,nan
1980-02-27 00:34:03,-1,nan,nan,nan,nan,1,3,nan,nan,1692,0.98398018,-0.53917795,197.17627,282.5708,nan,317.932,-41.5232,19.8976,nan,nan
1980-02-27 00:34:43,-1,nan,nan,nan,nan,1,3,nan,nan,1692,0.98398018,-0.53917801,197.17236,282.5708,nan,315.546,-41.3586,19.5861,nan,nan
1980-02-27 00:36:04,-1,nan,nan,nan,nan,1,3,nan,nan,1692,0.98397946,-0.53929967,197.16016,282.57031,nan,312.87,-42.7622,22.9182,nan,nan
1980-02-27 00:36:45,-1,nan,nan,nan,nan,1,4,nan,nan,1692,0.98397946,-0.53929973,197.15234,282.57031,nan,nan,nan,nan,nan,nan
1980-02-27 00:37:25,-1,nan,nan,nan,nan,1,3,nan,nan,1692,0.98397911,-0.53936058,197.14819,282.57007,nan,314.523,-5.34046,-15.7269,nan,nan
1980-02-27 00:38:06,-1,nan,nan,nan,nan,1,3,nan,nan,1692,0.98397875,-0.53942138,197.14038,282.57007,nan,325.452,9.70068,-19.3978,nan,nan
1980-02-27 00:38:46,-1,nan,nan,nan,nan,1,3,nan,nan,1692,0.98397875,-0.53942144,197.13257,282.57007,nan,322.753,0.399053,-22.0108,nan,nan
1980-02-27 00:39:27,-1,nan,nan,nan,nan,1,3,nan,nan,1692,0.98397839,-0.5394823,197.12842,282.56982,nan,329.001,2.96722,-22.61,nan,nan
1980-02-27 00:40:07,-1,nan,nan,nan,nan,1,3,nan,nan,1692,0.98397803,-0.53954315,197.12036,282.56958,nan,325.377,0.658198,-24.5493,nan,nan
1980-02-27 00:40:48,-1,nan,nan,nan,nan,1,3,nan,nan,1692,0.98397803,-0.53954315,197.11646,282.56958,nan,324.276,3.76,-19.3935,nan,nan
1980-02-27 00:41:28,-1,nan,nan,nan,nan,1,3,nan,nan,1692,0.98397768,-0.53960401,197.1084,282.56934,nan,317.674,-14.3503,-21.3977,nan,nan
1980-02-27 00:42:09,-1,nan,nan,nan,nan,1,3,nan,nan,1692,0.98397732,-0.53966486,197.10425,282.56909,nan,316.973,5.17853,-8.55792,nan,nan
1980-02-27 00:42:49,-1,nan,nan,nan,nan,1,3,nan,nan,1692,0.98397732,-0.53966486,197.09644,282.56909,nan,313.914,-1.69834,-10.1793,nan,nan
1980-02-27 00:43:30,-1,nan,nan,nan,nan,1,3,nan,nan,1692,0.98397696,-0.53972572,197.08838,282.56885,nan,314.666,-8.64761,-16.535,nan,nan
1980-02-27 00:44:10,-1,nan,nan,nan,nan,1,3,nan,nan,1692,0.9839766,-0.53978658,197.08423,282.5686,nan,314.937,-12.3299,-14.5188,nan,nan
1980-02-27 00:44:51,-1,nan,nan,nan,nan,1,3,nan,nan,1692,0.9839766,-0.53978664,197.07642,282.5686,nan,311.562,-11.168,-12.6211,nan,nan
1980-02-27 00:45:31,-1,nan,nan,nan,nan,1,3,nan,nan,1692,0.9839763,-0.53984743,197.07251,282.5686,nan,313.205,-15.4526,-11.8124,nan,nan
1980-02-27 00:46:12,-1,nan,nan,nan,nan,1,3,nan,nan,1692,0.98397595,-0.53990829,197.06445,282.56836,nan,310.654,-8.70967,-11.101,nan,nan
1980-02-27 00:46:51,-1,nan,nan,nan,nan,1,3,nan,nan,1692,0.98397595,-0.53990835,197.06055,282.56836,nan,318.027,-47.4758,-4.95882,nan,nan
1980-02-27 00:47:32,-1,nan,nan,nan,nan,1,3,nan,nan,1692,0.98397559,-0.53996915,197.05249,282.56812,nan,319.914,-42.6565,-11.505,nan,nan
1980-02-27 00:48:53,-1,nan,nan,nan,nan,1,3,nan,nan,1692,0.98397523,-0.54003006,197.04053,282.56787,nan,321.438,-45.348,-14.6819,nan,nan
1980-02-27 00:49:34,-1,nan,nan,nan,nan,1,3,nan,nan,1692,0.98397487,-0.54009092,197.03247,282.56763,nan,323.277,-46.5036,-13.2314,nan,nan
1980-02-27 00:50:15,-1,nan,nan,nan,nan,1,3,nan,nan,1692,0.98397452,-0.54015172,197.02832,282.56738,nan,323.806,-51.2055,-9.42661,nan,nan
1980-02-27 00:50:55,-1,nan,nan,nan,nan,1,3,nan,nan,1692,0.98397452,-0.54015177,197.02051,282.56738,nan,318.157,-48.4287,-3.97722,nan,nan
1980-02-27 00:51:36,-1,nan,nan,nan,nan,1,3,nan,nan,1692,0.98397416,-0.54021263,197.01245,282.56714,nan,314.604,-33.3354,-14.6492,nan,nan
1980-02-27 00:52:16,-1,nan,nan,nan,nan,1,3,nan,nan,1692,0.9839738,-0.54027343,197.0083,282.56689,nan,313.742,-24.6176,-18.1747,nan,nan
1980-02-27 00:52:57,-1,nan,nan,nan,nan,1,3,nan,nan,1692,0.9839738,-0.54027349,197.00049,282.56689,nan,327.854,1.45563,-25.2502,nan,nan
1980-02-27 00:53:37,-1,nan,nan,nan,nan,1,3,nan,nan,1692,0.98397344,-0.54033434,196.99658,282.56689,nan,330.655,2.20133,-23.5288,nan,nan
1980-02-27 00:54:18,-1,nan,nan,nan,nan,1,3,nan,nan,1692,0.98397309,-0.5403952,196.98853,282.56665,nan,330.492,7.87143,-19.7919,nan,nan
1980-02-27 00:54:58,-1,nan,nan,nan,nan,1,3,nan,nan,1692,0.98397309,-0.5403952,196.98071,282.56665,nan,334.837,10.0005,-18.1384,nan,nan
1980-02-27 00:55:39,-1,nan,nan,nan,nan,1,3,nan,nan,1692,0.98397273,-0.54045606,196.97656,282.56641,nan,342.063,8.91039,-25.4971,nan,nan
1980-02-27 00:56:19,-1,nan,nan,nan,nan,1,3,nan,nan,1692,0.98397237,-0.54051691,196.96851,282.56616,nan,347.232,3.98059,-27.043,nan,nan
1980-02-27 00:57:00,-1,nan,nan,nan,nan,1,3,nan,nan,1692,0.98397201,-0.54057771,196.96436,282.56592,nan,344.653,7.97117,-24.602,nan,nan
1980-02-27 00:57:40,-1,nan,nan,nan,nan,1,3,nan,nan,1692,0.98397201,-0.54057777,196.95654,282.56592,nan,345.957,5.66845,-29.0216,nan,nan
1980-02-27 00:58:21,-1,nan,nan,nan,nan,1,3,nan,nan,1692,0.98397166,-0.54063863,196.95239,282.56567,nan,346.433,9.27528,-24.8113,nan,nan
1980-02-27 00:59:01,-1,nan,nan,nan,nan,1,3,nan,nan,1692,0.9839713,-0.54069942,196.94434,282.56543,nan,347.259,5.25289,-27.9915,nan,nan
1980-02-27 00:59:42,-1,nan,nan,nan,nan,1,3,nan,nan,1692,0.9839713,-0.54069948,196.93652,282.56543,nan,344.172,5.13406,-25.5901,nan,nan
1980-02-27 01:00:22,-1,nan,nan,nan,nan,1,3,nan,nan,1692,0.983971,-0.54076034,196.93262,282.56543,nan,331.413,10.1513,-21.6627,nan,nan
1980-02-27 01:01:03,-1,nan,nan,nan,nan,1,3,nan,nan,1692,0.98397064,-0.54082119,196.92456,282.56519,nan,344.101,7.78596,-24.6974,nan,nan
1980-02-27 01:01:43,-1,nan,nan,nan,nan,1,3,nan,nan,1692,0.98397064,-0.54082119,196.92065,282.56519,nan,343.641,12.7857,-22.6979,nan,nan
1980-02-27 01:02:24,-1,nan,nan,nan,nan,1,3,nan,nan,1692,0.98397028,-0.54088205,196.9126,282.56494,nan,343.707,12.0538,-21.436,nan,nan
1980-02-27 01:03:04,-1,nan,nan,nan,nan,1,3,nan,nan,1692,0.98396993,-0.54094291,196.90845,282.5647,nan,339.93,9.65131,-21.9731,nan,nan
1980-02-27 01:03:45,-1,nan,nan,nan,nan,1,4,nan,nan,1692,0.98396993,-0.54094291,196.90063,282.5647,nan,nan,nan,nan,nan,nan
1980-02-27 01:04:25,-1,nan,nan,nan,nan,1,3,nan,nan,1692,0.98396957,-0.54100376,196.89258,282.56445,nan,360.54,-1.39761,-30.2011,nan,nan
1980-02-27 01:05:06,-1,nan,nan,nan,nan,1,3,nan,nan,1692,0.98396921,-0.54106462,196.88843,282.56421,nan,370.544,-0.275111,-26.6107,nan,nan
1980-02-27 01:05:46,-1,nan,nan,nan,nan,1,3,nan,nan,1692,0.98396921,-0.54106468,196.88062,282.56421,nan,367.399,-3.06289,-26.5086,nan,nan
1980-02-27 01:06:27,-1,nan,nan,nan,nan,1,3,nan,nan,1692,0.98396885,-0.54112548,196.87646,282.56396,nan,351.144,5.82599,-26.4171,nan,nan
1980-02-27 01:07:07,-1,nan,nan,nan,nan,1,3,nan,nan,1692,0.9839685,-0.54118633,196.86841,282.56372,nan,345.626,17.2918,-15.2612,nan,nan
1980-02-27 01:07:48,-1,nan,nan,nan,nan,1,3,nan,nan,1692,0.9839685,-0.54118639,196.8606,282.56372,nan,359.634,11.974,-21.1936,nan,nan
1980-02-27 01:08:28,-1,nan,nan,nan,nan,1,3,nan,nan,1692,0.98396814,-0.54124725,196.85669,282.56372,nan,342.237,12.0323,-21.082,nan,nan
1980-02-27 01:09:09,-1,nan,nan,nan,nan,1,3,nan,nan,1692,0.98396778,-0.54130805,196.84863,282.56348,nan,345.016,8.66508,-25.5239,nan,nan
1980-02-27 01:09:49,-1,nan,nan,nan,nan,1,3,nan,nan,1692,0.98396778,-0.5413081,196.84473,282.56348,nan,350.246,12.0747,-18.7259,nan,nan
1980-02-27 01:10:30,-1,nan,nan,nan,nan,1,3,nan,nan,1692,0.98396742,-0.54136896,196.83667,282.56323,nan,343.026,13.2085,-18.4165,nan,nan
1980-02-27 01:11:10,-1,nan,nan,nan,nan,1,3,nan,nan,1692,0.98396707,-0.54142976,196.83252,282.56299,nan,345.991,8.22994,-23.6094,nan,nan
1980-02-27 01:11:51,-1,nan,nan,nan,nan,1,3,nan,nan,1692,0.98396707,-0.54142982,196.82471,282.56299,nan,351.997,10.5068,-21.6105,nan,nan
1980-02-27 01:12:31,-1,nan,nan,nan,nan,1,3,nan,nan,1692,0.98396671,-0.54149067,196.81665,282.56274,nan,357.57,2.93973,-28.3959,nan,nan
1980-02-27 01:13:12,-1,nan,nan,nan,nan,1,3,nan,nan,1692,0.98396635,-0.54155153,196.8125,282.5625,nan,348.328,4.61969,-25.2096,nan,nan
1980-02-27 01:13:52,-1,nan,nan,nan,nan,1,3,nan,nan,1692,0.98396635,-0.54155153,196.80469,282.5625,nan,357.465,16.028,-16.2184,nan,nan
1980-02-27 01:14:33,-1,nan,nan,nan,nan,1,3,nan,nan,1692,0.98396599,-0.54161239,196.80054,282.56226,nan,358.164,14.2163,-14.6903,nan,nan
1980-02-27 01:15:13,-1,nan,nan,nan,nan,1,3,nan,nan,1692,0.98396564,-0.54167324,196.79272,282.56226,nan,351.501,16.5756,-15.6742,nan,nan
1980-02-27 01:15:54,-1,nan,nan,nan,nan,1,3,nan,nan,1692,0.98396564,-0.54167324,196.78491,282.56226,nan,355.303,13.7277,-14.1858,nan,nan
1980-02-27 01:16:34,-1,nan,nan,nan,nan,1,3,nan,nan,1692,0.98396528,-0.5417341,196.78076,282.56201,nan,353.997,21.0603,-8.41268,nan,nan
1980-02-27 01:17:15,-1,nan,nan,nan,nan,1,3,nan,nan,1692,0.98396492,-0.54179496,196.77271,282.56177,nan,351.485,16.3598,-14.4368,nan,nan
1980-02-27 01:17:55,-1,nan,nan,nan,nan,1,3,nan,nan,1692,0.98396492,-0.54179502,196.7688,282.56177,nan,356.654,21.3697,-7.84913,nan,nan
1980-02-27 01:18:36,-1,nan,nan,nan,nan,1,3,nan,nan,1692,0.98396456,-0.54185581,196.76074,282.56152,nan,359.529,18.3362,-5.51868,nan,nan
1980-02-27 01:19:16,-1,nan,nan,nan,nan,1,3,nan,nan,1692,0.9839642,-0.54191667,196.75659,282.56128,nan,343.982,16.5499,-17.1838,nan,nan
1980-02-27 01:19:57,-1,nan,nan,nan,nan,1,3,nan,nan,1692,0.9839642,-0.54191673,196.74878,282.56128,nan,342.972,25.9581,8.47258,nan,nan
1980-02-27 01:20:37,-1,nan,nan,nan,nan,1,3,nan,nan,1692,0.98396385,-0.54197752,196.74072,282.56104,nan,336.406,23.3462,11.6423,nan,nan
1980-02-27 01:21:18,-1,nan,nan,nan,nan,1,3,nan,nan,1692,0.98396349,-0.54203838,196.73657,282.56079,nan,344.685,16.5826,40.2859,nan,nan
1980-02-27 01:21:57,-1,nan,nan,nan,nan,1,4,nan,nan,1692,0.98396349,-0.54203844,196.72876,282.56079,nan,nan,nan,nan,nan,nan
1980-02-27 02:28:17,-1,nan,nan,nan,nan,1,3,nan,nan,1692,0.98393935,-0.54611599,196.10913,282.54663,nan,325.214,-24.308,46.9562,nan,nan
1980-02-27 02:49:53,-1,nan,nan,nan,nan,1,3,nan,nan,1692,0.98393172,-0.5473941,195.90552,282.54224,nan,339.919,23.4547,-10.9951,nan,nan
1980-02-27 03:11:29,-1,nan,nan,nan,nan,1,4,nan,nan,1692,0.98392373,-0.548733,195.70557,282.5376,nan,nan,nan,nan,nan,nan
1980-02-27 03:33:05,-1,nan,nan,nan,nan,1,3,nan,nan,1692,0.98391569,-0.55007195,195.50146,282.53271,nan,335.425,-34.8179,46.6711,nan,nan
1980-02-27 04:59:29,-1,nan,nan,nan,nan,1,3,nan,nan,1692,0.98388386,-0.55530608,194.69409,282.5144,nan,303.74,-8.19849,-0.674314,nan,nan
1980-02-27 05:21:05,-1,nan,nan,nan,nan,1,3,nan,nan,1692,0.98387557,-0.55664504,194.49023,282.50977,nan,313.134,-10.5631,-20.8883,nan,nan
1980-02-27 06:47:29,-1,nan,nan,nan,nan,1,3,nan,nan,1692,0.98384303,-0.56187928,193.68311,282.4917,nan,352.156,15.6717,-32.3846,nan,nan
1980-02-27 07:09:05,-1,nan,nan,nan,nan,1,3,nan,nan,1692,0.98383456,-0.5632183,193.47925,282.48706,nan,354.601,-36.2206,-29.1681,nan,nan
1980-02-27 07:30:41,-1,nan,nan,nan,nan,1,3,nan,nan,1692,0.98382652,-0.56449646,193.27539,282.48242,nan,339.431,15.6701,-28.8829,nan,nan
1980-02-27 08:23:26,-1,nan,nan,nan,nan,1,4,nan,nan,1692,0.98381251,-0.43429631,192.70474,282.39224,nan,nan,nan,nan,nan,nan
1980-02-27 08:45:02,-1,nan,nan,nan,nan,1,3,nan,nan,1692,0.98380411,-0.4355855,192.50095,282.38766,nan,341.859,41.4329,-1.73854,nan,nan
1980-02-27 09:32:18,-1,nan,nan,nan,nan,1,3,nan,nan,1692,0.98377889,-0.57192177,192.14014,282.45654,nan,315.851,30.3647,20.0193,nan,nan
1980-02-27 09:32:28,-1,nan,nan,nan,nan,1,3,nan,nan,1692,0.98378545,-0.4384065,192.05722,282.37753,nan,305.212,2.88527,23.4294,nan,nan
1980-02-27 09:32:59,-1,nan,nan,nan,nan,1,3,nan,nan,1692,0.98377889,-0.57192177,192.13232,282.45654,nan,307.24,3.47005,28.553,nan,nan
1980-02-27 09:33:08,-1,nan,nan,nan,nan,1,3,nan,nan,1692,0.98377848,-0.57198256,192.13208,282.4563,nan,309.002,16.4765,21.8405,nan,nan
1980-02-27 09:33:49,-1,nan,nan,nan,nan,1,3,nan,nan,1692,0.98377848,-0.57198262,192.12427,282.4563,nan,306.845,1.71341,29.5483,nan,nan
1980-02-27 09:34:29,-1,nan,nan,nan,nan,1,4,nan,nan,1692,0.98377812,-0.57204348,192.11621,282.45605,nan,nan,nan,nan,nan,nan
1980-02-27 09:35:10,-1,nan,nan,nan,nan,1,3,nan,nan,1692,0.9837777,-0.57210433,192.11206,282.45581,nan,308.361,17.8866,20.4265,nan,nan
1980-02-27 09:35:50,-1,nan,nan,nan,nan,1,3,nan,nan,1692,0.9837777,-0.57210433,192.10425,282.45581,nan,310.06,18.4738,25.9663,nan,nan
1980-02-27 09:36:31,-1,nan,nan,nan,nan,1,3,nan,nan,1692,0.98377728,-0.57216519,192.1001,282.45557,nan,306.975,13.9455,17.4776,nan,nan
1980-02-27 09:37:11,-1,nan,nan,nan,nan,1,3,nan,nan,1692,0.98377693,-0.57222605,192.09204,282.45532,nan,307.624,14.005,17.7473,nan,nan
1980-02-27 09:37:51,-1,nan,nan,nan,nan,1,3,nan,nan,1692,0.98377693,-0.57222611,192.08813,282.45532,nan,308.818,20.2732,15.8784,nan,nan
1980-02-27 09:38:32,-1,nan,nan,nan,nan,1,3,nan,nan,1692,0.98377651,-0.5722869,192.08032,282.45532,nan,294.77,57.3912,21.5704,nan,nan
1980-02-27 09:39:12,-1,nan,nan,nan,nan,1,3,nan,nan,1692,0.98377615,-0.57234776,192.07227,282.45508,nan,308.76,12.1063,18.5538,nan,nan
1980-02-27 09:39:53,-1,nan,nan,nan,nan,1,3,nan,nan,1692,0.98377615,-0.57234782,192.06836,282.45508,nan,307.506,12.0516,19.9136,nan,nan
1980-02-27 09:40:34,-1,nan,nan,nan,nan,1,3,nan,nan,1692,0.98377573,-0.57240868,192.0603,282.45483,nan,306.553,8.39124,24.675,nan,nan
1980-02-27 09:41:14,-1,nan,nan,nan,nan,1,3,nan,nan,1692,0.98377532,-0.57246953,192.05615,282.45459,nan,306.914,12.6525,22.9457,nan,nan
1980-02-27 09:41:55,-1,nan,nan,nan,nan,1,3,nan,nan,1692,0.98377532,-0.57246953,192.04834,282.45459,nan,306.568,12.3812,23.082,nan,nan
1980-02-27 09:42:35,-1,nan,nan,nan,nan,1,3,nan,nan,1692,0.98377496,-0.57253039,192.04028,282.45435,nan,307.128,5.0516,28.6907,nan,nan
1980-02-27 09:43:15,-1,nan,nan,nan,nan,1,3,nan,nan,1692,0.98377454,-0.57259125,192.03613,282.4541,nan,309.037,11.2253,32.1461,nan,nan
1980-02-27 09:43:56,-1,nan,nan,nan,nan,1,3,nan,nan,1692,0.98377454,-0.57259125,192.02832,282.4541,nan,297.47,29.0362,32.7771,nan,nan
1980-02-27 09:45:58,-1,nan,nan,nan,nan,1,3,nan,nan,1692,0.98377377,-0.57271302,192.01245,282.45386,nan,305.616,6.54428,18.1197,nan,nan
1980-02-27 09:46:38,-1,nan,nan,nan,nan,1,3,nan,nan,1692,0.98377335,-0.57277381,192.00439,282.45361,nan,306.244,8.55372,20.8909,nan,nan
1980-02-27 09:47:19,-1,nan,nan,nan,nan,1,3,nan,nan,1692,0.98377299,-0.57283467,191.99634,282.45337,nan,307.775,8.11646,12.4304,nan,nan
1980-02-27 09:47:59,-1,nan,nan,nan,nan,1,3,nan,nan,1692,0.98377299,-0.57283473,191.99243,282.45337,nan,309.238,12.1481,28.3785,nan,nan
1980-02-27 09:48:40,-1,nan,nan,nan,nan,1,3,nan,nan,1692,0.98377258,-0.57289559,191.98438,282.45313,nan,309.372,10.475,31.1893,nan,nan
1980-02-27 09:49:20,-1,nan,nan,nan,nan,1,3,nan,nan,1692,0.98377216,-0.57295644,191.98022,282.45288,nan,312.362,8.97137,28.7504,nan,nan
1980-02-27 09:50:01,-1,nan,nan,nan,nan,1,3,nan,nan,1692,0.9837718,-0.57301724,191.97217,282.45264,nan,311.317,15.4791,28.3715,nan,nan
1980-02-27 09:50:41,-1,nan,nan,nan,nan,1,3,nan,nan,1692,0.9837718,-0.5730173,191.96826,282.45264,nan,309.309,6.02291,27.2252,nan,nan
1980-02-27 09:51:22,-1,nan,nan,nan,nan,1,3,nan,nan,1692,0.98377138,-0.57307816,191.96021,282.45239,nan,309.989,6.69537,30.6122,nan,nan
1980-02-27 09:52:02,-1,nan,nan,nan,nan,1,3,nan,nan,1692,0.98377097,-0.57313901,191.95215,282.45215,nan,309.584,6.03284,25.7228,nan,nan
1980-02-27 09:52:43,-1,nan,nan,nan,nan,1,3,nan,nan,1692,0.98377097,-0.57313901,191.94824,282.45215,nan,308.656,8.52293,31.671,nan,nan
1980-02-27 09:53:23,-1,nan,nan,nan,nan,1,3,nan,nan,1692,0.98377061,-0.57319987,191.94043,282.45215,nan,311.703,6.63195,33.856,nan,nan
1980-02-27 09:54:04,-1,nan,nan,nan,nan,1,3,nan,nan,1692,0.98377019,-0.57326072,191.93628,282.4519,nan,314.536,7.15958,38.1694,nan,nan
1980-02-27 09:54:44,-1,nan,nan,nan,nan,1,3,nan,nan,1692,0.98377019,-0.57326078,191.92847,282.4519,nan,313.584,9.51854,36.0524,nan,nan
1980-02-27 09:55:25,-1,nan,nan,nan,nan,1,3,nan,nan,1692,0.98376983,-0.57332158,191.92041,282.45166,nan,312.469,7.2252,37.3609,nan,nan
1980-02-27 09:56:05,-1,nan,nan,nan,nan,1,3,nan,nan,1692,0.98376942,-0.57338244,191.91626,282.45142,nan,312.9,3.58163,39.0444,nan,nan
1980-02-27 10:33:08,-1,nan,nan,nan,nan,1,3,nan,nan,1692,0.98375463,-0.57563436,191.5686,282.4436,nan,322.136,34.8942,26.7362,nan,nan
1980-02-27 10:33:48,-1,nan,nan,nan,nan,1,3,nan,nan,1692,0.98375463,-0.57563442,191.5647,282.4436,nan,321.556,33.2862,22.0582,nan,nan
1980-02-27 10:34:29,-1,nan,nan,nan,nan,1,3,nan,nan,1692,0.98375428,-0.57569528,191.55664,282.44336,nan,316.736,27.369,31.0351,nan,nan
1980-02-27 10:34:34,-1,nan,nan,nan,nan,1,3,nan,nan,1692,0.98375428,-0.57569528,191.55664,282.44336,nan,316.138,30.1472,17.7195,nan,nan
1980-02-27 10:35:14,-1,nan,nan,nan,nan,1,3,nan,nan,1692,0.98375386,-0.57575613,191.54858,282.44312,nan,317.147,32.762,17.4227,nan,nan
1980-02-27 10:35:55,-1,nan,nan,nan,nan,1,3,nan,nan,1692,0.98375386,-0.57575619,191.54468,282.44312,nan,315.065,30.0856,30.384,nan,nan
1980-02-27 10:36:35,-1,nan,nan,nan,nan,1,3,nan,nan,1692,0.98375344,-0.57581699,191.53662,282.44287,nan,316.375,28.1129,13.0178,nan,nan
1980-02-27 10:37:16,-1,nan,nan,nan,nan,1,3,nan,nan,1692,0.98375309,-0.57587785,191.52856,282.44263,nan,314.386,26.1343,0.493728,nan,nan
1980-02-27 10:37:56,-1,nan,nan,nan,nan,1,3,nan,nan,1692,0.98375309,-0.5758779,191.52466,282.44263,nan,318.616,29.5401,-1.66755,nan,nan